SAM042 KLSV-KADW

Flight info

Callsign SAM042
Flight time 3h 49m
Altitude 35000
Route LSV MMM DVC J197 HGO J24 MCI J80 EMPTY LUISE FRDMM6
Aircraft B737/M-SDE2E3FGHIRWXY/LB1

Departure

Time 2026-04-24 22:16
Airport Nellis Air Force Base (KLSV)

Arrival

Time 2026-04-25 02:05
Airport Joint Base Andrews (KADW)
Time Latitude Longitude Altitude Speed Heading
2026-04-24 21:57 36.23693 -115.04036 1851 ft 0 kts 40°
2026-04-24 22:08 36.23708 -115.04008 1851 ft 8 kts 62°
2026-04-24 22:08 36.23733 -115.03943 1851 ft 8 kts 65°
2026-04-24 22:08 36.23730 -115.03874 1851 ft 9 kts 119°
2026-04-24 22:08 36.23709 -115.03803 1851 ft 9 kts 83°
2026-04-24 22:09 36.23751 -115.03743 1850 ft 10 kts 37°
2026-04-24 22:09 36.23811 -115.03688 1849 ft 11 kts 41°
2026-04-24 22:09 36.23832 -115.03665 1849 ft 0 kts 41°
2026-04-24 22:09 36.23850 -115.03644 1849 ft 8 kts 42°
2026-04-24 22:10 36.23915 -115.03572 1851 ft 14 kts 41°
2026-04-24 22:10 36.23989 -115.03494 1850 ft 14 kts 40°
2026-04-24 22:10 36.24059 -115.03420 1852 ft 13 kts 41°
2026-04-24 22:10 36.24124 -115.03345 1855 ft 13 kts 41°
2026-04-24 22:11 36.24190 -115.03274 1857 ft 12 kts 41°
2026-04-24 22:11 36.24254 -115.03205 1859 ft 12 kts 41°
2026-04-24 22:11 36.24322 -115.03148 1862 ft 12 kts 16°
2026-04-24 22:11 36.24401 -115.03145 1863 ft 11 kts 359°
2026-04-24 22:12 36.24480 -115.03146 1867 ft 11 kts 359°
2026-04-24 22:12 36.24550 -115.03123 1868 ft 11 kts 52°
2026-04-24 22:12 36.24561 -115.03033 1867 ft 11 kts 90°
2026-04-24 22:12 36.24560 -115.02944 1866 ft 10 kts 91°
2026-04-24 22:13 36.24557 -115.02857 1862 ft 10 kts 92°
2026-04-24 22:13 36.24555 -115.02773 1864 ft 10 kts 92°
2026-04-24 22:13 36.24553 -115.02691 1864 ft 9 kts 92°
2026-04-24 22:13 36.24550 -115.02602 1865 ft 10 kts 92°
2026-04-24 22:14 36.24550 -115.02516 1867 ft 10 kts 89°
2026-04-24 22:14 36.24551 -115.02431 1868 ft 10 kts 89°
2026-04-24 22:14 36.24551 -115.02346 1868 ft 10 kts 89°
2026-04-24 22:14 36.24565 -115.02264 1869 ft 10 kts 91°
2026-04-24 22:15 36.24517 -115.02235 1870 ft 9 kts 213°
2026-04-24 22:15 36.24374 -115.02378 1869 ft 65 kts 220°
2026-04-24 22:15 36.23815 -115.02977 1862 ft 145 kts 221°
2026-04-24 22:15 36.22951 -115.03919 2324 ft 177 kts 219°
2026-04-24 22:16 36.21959 -115.05003 3101 ft 202 kts 224°
2026-04-24 22:16 36.21053 -115.06464 3660 ft 233 kts 240°
2026-04-24 22:16 36.20497 -115.08380 4476 ft 237 kts 257°
2026-04-24 22:16 36.20392 -115.10423 5409 ft 239 kts 273°
2026-04-24 22:17 36.20746 -115.12425 6205 ft 246 kts 288°
2026-04-24 22:17 36.21596 -115.14351 6733 ft 269 kts 306°
2026-04-24 22:17 36.22991 -115.15980 7477 ft 284 kts 323°
2026-04-24 22:17 36.24813 -115.17003 8349 ft 294 kts 343°
2026-04-24 22:18 36.26874 -115.17197 9234 ft 302 kts
2026-04-24 22:18 36.28911 -115.16449 10102 ft 311 kts 27°
2026-04-24 22:18 36.30669 -115.14799 10644 ft 330 kts 48°
2026-04-24 22:18 36.32115 -115.12449 10890 ft 356 kts 56°
2026-04-24 22:19 36.33547 -115.09866 11468 ft 368 kts 55°
2026-04-24 22:19 36.35002 -115.07239 12105 ft 372 kts 57°
2026-04-24 22:19 36.36429 -115.04548 12976 ft 374 kts 57°
2026-04-24 22:19 36.37860 -115.01819 13753 ft 380 kts 57°
2026-04-24 22:20 36.39341 -114.98993 14444 ft 388 kts 57°
2026-04-24 22:20 36.40789 -114.96243 15136 ft 394 kts 56°
2026-04-24 22:20 36.42308 -114.93370 15831 ft 401 kts 56°
2026-04-24 22:20 36.43854 -114.90453 16542 ft 406 kts 56°
2026-04-24 22:21 36.45419 -114.87509 17220 ft 411 kts 56°
2026-04-24 22:21 36.47006 -114.84527 17845 ft 418 kts 56°
2026-04-24 22:21 36.48619 -114.81490 18487 ft 423 kts 55°
2026-04-24 22:21 36.50253 -114.78413 19111 ft 429 kts 55°
2026-04-24 22:22 36.51900 -114.75306 19784 ft 432 kts 55°
2026-04-24 22:22 36.53565 -114.72165 20396 ft 437 kts 55°
2026-04-24 22:22 36.55251 -114.68982 20964 ft 443 kts 55°
2026-04-24 22:22 36.56929 -114.65809 21562 ft 446 kts 55°
2026-04-24 22:23 36.58643 -114.62564 22142 ft 451 kts 55°
2026-04-24 22:23 36.60371 -114.59289 22720 ft 454 kts 55°
2026-04-24 22:23 36.62116 -114.55980 23268 ft 458 kts 55°
2026-04-24 22:23 36.63873 -114.52643 23776 ft 463 kts 55°
2026-04-24 22:24 36.65656 -114.49255 24223 ft 469 kts 55°
2026-04-24 22:24 36.67451 -114.45839 24696 ft 474 kts 55°
2026-04-24 22:24 36.69266 -114.42380 25181 ft 477 kts 55°
2026-04-24 22:24 36.71090 -114.38900 25621 ft 482 kts 55°
2026-04-24 22:25 36.72931 -114.35384 26038 ft 486 kts 55°
2026-04-24 22:25 36.74764 -114.31884 26449 ft 490 kts 54°
2026-04-24 22:25 36.76619 -114.28284 26834 ft 495 kts 57°
2026-04-24 22:25 36.78245 -114.24477 27255 ft 500 kts 64°
2026-04-24 22:26 36.79479 -114.20395 27602 ft 505 kts 75°
2026-04-24 22:26 36.80197 -114.16093 27984 ft 508 kts 82°
2026-04-24 22:26 36.80726 -114.11712 28346 ft 512 kts 83°
2026-04-24 22:26 36.81263 -114.07313 28678 ft 515 kts 81°
2026-04-24 22:27 36.81988 -114.02898 28997 ft 520 kts 76°
2026-04-24 22:27 36.82929 -113.98530 29316 ft 523 kts 73°
2026-04-24 22:27 36.83972 -113.94173 29643 ft 526 kts 72°
2026-04-24 22:27 36.85039 -113.89798 30005 ft 528 kts 72°
2026-04-24 22:28 36.86086 -113.85405 30448 ft 527 kts 73°
2026-04-24 22:28 36.87097 -113.80997 30953 ft 525 kts 74°
2026-04-24 22:28 36.88068 -113.76620 31442 ft 523 kts 74°
2026-04-24 22:28 36.89020 -113.72227 31747 ft 524 kts 75°
2026-04-24 22:29 36.90881 -113.63446 32381 ft 525 kts 75°
2026-04-24 22:29 36.91812 -113.59041 32790 ft 523 kts 75°
2026-04-24 22:29 36.92739 -113.54654 33137 ft 522 kts 75°
2026-04-24 22:30 36.93668 -113.50265 33395 ft 523 kts 75°
2026-04-24 22:30 36.94600 -113.45864 33689 ft 524 kts 75°
2026-04-24 22:30 36.95531 -113.41459 34035 ft 522 kts 75°
2026-04-24 22:30 36.96455 -113.37086 34434 ft 519 kts 75°
2026-04-24 22:31 36.97375 -113.32732 34817 ft 516 kts 75°
2026-04-24 22:31 36.98295 -113.28372 34875 ft 522 kts 75°
2026-04-24 22:31 36.99842 -113.21010 34910 ft 530 kts 75°
2026-04-24 22:32 37.01728 -113.11988 34937 ft 540 kts 75°
2026-04-24 22:32 37.03931 -113.01403 34931 ft 541 kts 75°
2026-04-24 22:33 37.05816 -112.92303 34927 ft 539 kts 75°
2026-04-24 22:33 37.07389 -112.84683 34930 ft 539 kts 75°
2026-04-24 22:34 37.09247 -112.75651 34944 ft 539 kts 75°
2026-04-24 22:34 37.11110 -112.66562 34933 ft 539 kts 75°
2026-04-24 22:35 37.12963 -112.57472 34929 ft 539 kts 75°
2026-04-24 22:35 37.14811 -112.48374 34941 ft 538 kts 75°
2026-04-24 22:36 37.16653 -112.39269 34930 ft 538 kts 76°
2026-04-24 22:36 37.18487 -112.30162 34937 ft 538 kts 76°
2026-04-24 22:37 37.20311 -112.21061 34940 ft 538 kts 76°
2026-04-24 22:37 37.22135 -112.11928 34932 ft 538 kts 76°
2026-04-24 22:38 37.23934 -112.02869 34920 ft 538 kts 76°
2026-04-24 22:38 37.25737 -111.93760 34932 ft 537 kts 76°
2026-04-24 22:39 37.27535 -111.84642 34914 ft 538 kts 76°
2026-04-24 22:39 37.29324 -111.75518 34914 ft 538 kts 76°
2026-04-24 22:40 37.31109 -111.66379 34908 ft 538 kts 76°
2026-04-24 22:40 37.32887 -111.57243 34897 ft 538 kts 76°
2026-04-24 22:41 37.34658 -111.48100 34896 ft 538 kts 76°
2026-04-24 22:41 37.36421 -111.38956 34891 ft 539 kts 76°
2026-04-24 22:42 37.38179 -111.29792 34888 ft 539 kts 76°
2026-04-24 22:42 37.39920 -111.20679 34864 ft 539 kts 76°
2026-04-24 22:43 37.41666 -111.11497 34873 ft 539 kts 76°
2026-04-24 22:43 37.43406 -111.02309 34868 ft 538 kts 76°
2026-04-24 22:44 37.45137 -110.93129 34863 ft 539 kts 76°
2026-04-24 22:44 37.46850 -110.83997 34856 ft 540 kts 76°
2026-04-24 22:45 37.48567 -110.74796 34847 ft 539 kts 76°
2026-04-24 22:45 37.50276 -110.65601 34842 ft 539 kts 76°
2026-04-24 22:46 37.51979 -110.56390 34849 ft 539 kts 76°
2026-04-24 22:46 37.53676 -110.47179 34841 ft 539 kts 76°
2026-04-24 22:47 37.55353 -110.38035 34844 ft 539 kts 76°
2026-04-24 22:47 37.57029 -110.28832 34852 ft 538 kts 76°
2026-04-24 22:48 37.58698 -110.19645 34846 ft 537 kts 76°
2026-04-24 22:48 37.60361 -110.10446 34855 ft 536 kts 76°
2026-04-24 22:49 37.62011 -110.01277 34861 ft 536 kts 76°
2026-04-24 22:49 37.63656 -109.92096 34879 ft 536 kts 76°
2026-04-24 22:50 37.65292 -109.82912 34890 ft 536 kts 76°
2026-04-24 22:50 37.66910 -109.73779 34898 ft 536 kts 76°
2026-04-24 22:51 37.68529 -109.64604 34907 ft 536 kts 76°
2026-04-24 22:51 37.70141 -109.55414 34907 ft 536 kts 76°
2026-04-24 22:52 37.71752 -109.46201 34908 ft 537 kts 76°
2026-04-24 22:52 37.73360 -109.36965 34918 ft 538 kts 76°
2026-04-24 22:53 37.74958 -109.27729 34933 ft 538 kts 76°
2026-04-24 22:53 37.76543 -109.18514 34944 ft 539 kts 76°
2026-04-24 22:54 37.78133 -109.09241 34942 ft 539 kts 76°
2026-04-24 22:54 37.79712 -108.99976 34943 ft 539 kts 76°
2026-04-24 22:55 37.81306 -108.90764 34948 ft 539 kts 75°
2026-04-24 22:55 37.83203 -108.81586 34943 ft 538 kts 72°
2026-04-24 22:56 37.85240 -108.72484 34940 ft 538 kts 72°
2026-04-24 22:56 37.87246 -108.63357 34946 ft 538 kts 72°
2026-04-24 22:57 37.89197 -108.54212 34967 ft 537 kts 72°
2026-04-24 22:57 37.91110 -108.45118 34970 ft 537 kts 73°
2026-04-24 22:58 37.93025 -108.35980 34968 ft 536 kts 73°
2026-04-24 22:58 37.94933 -108.26853 34992 ft 536 kts 73°
2026-04-24 22:59 37.96840 -108.17717 34981 ft 536 kts 73°
2026-04-24 23:00 37.99684 -108.04018 34991 ft 535 kts 73°
2026-04-24 23:00 38.01568 -107.94885 35009 ft 535 kts 73°
2026-04-24 23:01 38.03446 -107.85736 35001 ft 535 kts 73°
2026-04-24 23:01 38.05299 -107.76672 35008 ft 534 kts 73°
2026-04-24 23:02 38.07158 -107.67544 35006 ft 534 kts 73°
2026-04-24 23:02 38.09014 -107.58391 34981 ft 535 kts 73°
2026-04-24 23:03 38.10865 -107.49228 34985 ft 535 kts 73°
2026-04-24 23:03 38.12709 -107.40061 34970 ft 535 kts 73°
2026-04-24 23:04 38.14531 -107.30957 34956 ft 534 kts 73°
2026-04-24 23:04 38.16356 -107.21800 34949 ft 535 kts 73°
2026-04-24 23:05 38.18180 -107.12610 34941 ft 534 kts 74°
2026-04-24 23:05 38.19978 -107.03511 34949 ft 533 kts 74°
2026-04-24 23:06 38.21778 -106.94357 34937 ft 534 kts 74°
2026-04-24 23:06 38.23573 -106.85183 34927 ft 534 kts 74°
2026-04-24 23:07 38.25361 -106.76017 34960 ft 533 kts 74°
2026-04-24 23:07 38.27139 -106.66857 34979 ft 532 kts 74°
2026-04-24 23:08 38.28897 -106.57758 34993 ft 533 kts 74°
2026-04-24 23:08 38.30663 -106.48569 35028 ft 534 kts 75°
2026-04-24 23:09 38.32423 -106.39375 35065 ft 534 kts 75°
2026-04-24 23:09 38.34178 -106.30160 35073 ft 535 kts 75°
2026-04-24 23:10 38.35930 -106.20927 35042 ft 537 kts 75°
2026-04-24 23:10 38.37668 -106.11715 35013 ft 538 kts 75°
2026-04-24 23:11 38.39415 -106.02424 34967 ft 539 kts 75°
2026-04-24 23:11 38.41159 -105.93111 34851 ft 540 kts 75°
2026-04-24 23:12 38.42887 -105.83827 34867 ft 537 kts 75°
2026-04-24 23:12 38.44604 -105.74572 34892 ft 536 kts 75°
2026-04-24 23:13 38.46305 -105.65337 34895 ft 534 kts 75°
2026-04-24 23:13 38.47997 -105.56105 34892 ft 533 kts 75°
2026-04-24 23:14 38.49680 -105.46892 34856 ft 533 kts 75°
2026-04-24 23:14 38.51354 -105.37679 34849 ft 532 kts 75°
2026-04-24 23:15 38.53015 -105.28507 34826 ft 531 kts 75°
2026-04-24 23:15 38.54674 -105.19297 34804 ft 531 kts 75°
2026-04-24 23:16 38.56326 -105.10082 34792 ft 530 kts 75°
2026-04-24 23:16 38.57954 -105.00950 34790 ft 530 kts 75°
2026-04-24 23:17 38.59583 -104.91773 34787 ft 529 kts 75°
2026-04-24 23:17 38.61208 -104.82576 34786 ft 529 kts 75°
2026-04-24 23:18 38.62549 -104.74956 34790 ft 529 kts 75°
2026-04-24 23:18 38.64155 -104.65772 34790 ft 529 kts 75°
2026-04-24 23:19 38.65755 -104.56581 34789 ft 529 kts 75°
2026-04-24 23:19 38.67350 -104.47385 34785 ft 529 kts 75°
2026-04-24 23:20 38.68932 -104.38214 34798 ft 529 kts 75°
2026-04-24 23:20 38.70514 -104.28999 34818 ft 530 kts 75°
2026-04-24 23:21 38.72090 -104.19772 34814 ft 530 kts 75°
2026-04-24 23:21 38.73646 -104.10607 34800 ft 530 kts 75°
2026-04-24 23:22 38.75207 -104.01366 34795 ft 530 kts 75°
2026-04-24 23:22 38.76760 -103.92131 34794 ft 530 kts 75°
2026-04-24 23:23 38.78304 -103.82907 34788 ft 529 kts 75°
2026-04-24 23:23 38.79840 -103.73679 34783 ft 529 kts 75°
2026-04-24 23:24 38.81360 -103.64507 34781 ft 528 kts 76°
2026-04-24 23:24 38.82439 -103.55176 34761 ft 530 kts 85°
2026-04-24 23:25 38.82491 -103.45731 34766 ft 530 kts 91°
2026-04-24 23:25 38.82373 -103.36283 34769 ft 529 kts 89°
2026-04-24 23:26 38.82565 -103.26841 34771 ft 529 kts 87°
2026-04-24 23:26 38.82816 -103.17406 34763 ft 529 kts 88°
2026-04-24 23:27 38.83013 -103.07999 34769 ft 528 kts 88°
2026-04-24 23:27 38.83198 -102.98632 34771 ft 528 kts 88°
2026-04-24 23:28 38.83382 -102.89220 34761 ft 527 kts 88°
2026-04-24 23:28 38.83558 -102.79805 34774 ft 527 kts 88°
2026-04-24 23:29 38.83727 -102.70400 34766 ft 527 kts 88°
2026-04-24 23:29 38.83888 -102.60980 34775 ft 527 kts 88°
2026-04-24 23:30 38.84042 -102.51647 34788 ft 526 kts 88°
2026-04-24 23:30 38.84188 -102.42236 34777 ft 526 kts 88°
2026-04-24 23:31 38.84326 -102.32840 34779 ft 526 kts 88°
2026-04-24 23:31 38.84457 -102.23457 34776 ft 526 kts 88°
2026-04-24 23:32 38.84581 -102.14060 34779 ft 526 kts 89°
2026-04-24 23:32 38.84701 -102.04683 34782 ft 526 kts 89°
2026-04-24 23:33 38.84809 -101.95305 34787 ft 526 kts 89°
2026-04-24 23:33 38.84908 -101.85928 34786 ft 525 kts 89°
2026-04-24 23:34 38.85002 -101.76544 34790 ft 525 kts 89°
2026-04-24 23:34 38.85089 -101.67232 34789 ft 525 kts 89°
2026-04-24 23:35 38.85168 -101.57873 34805 ft 525 kts 89°
2026-04-24 23:35 38.85238 -101.48509 34807 ft 525 kts 89°
2026-04-24 23:36 38.85302 -101.39134 34809 ft 525 kts 89°
2026-04-24 23:36 38.85359 -101.29767 34808 ft 524 kts 90°
2026-04-24 23:37 38.85408 -101.20473 34817 ft 524 kts 90°
2026-04-24 23:37 38.85468 -101.06454 34821 ft 524 kts 90°
2026-04-24 23:38 38.85499 -100.97097 34829 ft 524 kts 90°
2026-04-24 23:38 38.85520 -100.87743 34814 ft 524 kts 90°
2026-04-24 23:39 38.85537 -100.78389 34834 ft 523 kts 90°
2026-04-24 23:39 38.85546 -100.69059 34835 ft 523 kts 90°
2026-04-24 23:40 38.85548 -100.59718 34833 ft 522 kts 90°
2026-04-24 23:40 38.85541 -100.50443 34833 ft 522 kts 90°
2026-04-24 23:41 38.85528 -100.41130 34831 ft 522 kts 90°
2026-04-24 23:41 38.85506 -100.31794 34834 ft 522 kts 91°
2026-04-24 23:42 38.85478 -100.22539 34844 ft 522 kts 91°
2026-04-24 23:42 38.85442 -100.13202 34838 ft 522 kts 91°
2026-04-24 23:43 38.85398 -100.03873 34846 ft 523 kts 91°
2026-04-24 23:43 38.85347 -99.94544 34850 ft 523 kts 91°
2026-04-24 23:44 38.85289 -99.85222 34851 ft 523 kts 92°
2026-04-24 23:44 38.85223 -99.75895 34851 ft 522 kts 92°
2026-04-24 23:45 38.85150 -99.66565 34858 ft 522 kts 92°
2026-04-24 23:45 38.85070 -99.57245 34859 ft 522 kts 92°
2026-04-24 23:46 38.84982 -99.47988 34862 ft 522 kts 92°
2026-04-24 23:46 38.84887 -99.38690 34858 ft 522 kts 92°
2026-04-24 23:47 38.84786 -99.29379 34863 ft 521 kts 92°
2026-04-24 23:47 38.84938 -99.20076 34858 ft 522 kts 87°
2026-04-24 23:48 38.85516 -99.10772 34867 ft 522 kts 86°
2026-04-24 23:48 38.86125 -99.01494 34860 ft 521 kts 86°
2026-04-24 23:49 38.86643 -98.92202 34854 ft 521 kts 88°
2026-04-24 23:49 38.87104 -98.82960 34849 ft 521 kts 88°
2026-04-24 23:50 38.87554 -98.73677 34852 ft 521 kts 88°
2026-04-24 23:50 38.88005 -98.64378 34854 ft 521 kts 88°
2026-04-24 23:51 38.88449 -98.55148 34861 ft 521 kts 88°
2026-04-24 23:51 38.88888 -98.45870 34864 ft 521 kts 88°
2026-04-24 23:52 38.89321 -98.36571 34877 ft 521 kts 88°
2026-04-24 23:52 38.89745 -98.27271 34880 ft 521 kts 89°
2026-04-24 23:53 38.90162 -98.18001 34886 ft 520 kts 89°
2026-04-24 23:53 38.90569 -98.08780 34890 ft 520 kts 89°
2026-04-24 23:54 38.90970 -97.99495 34884 ft 520 kts 89°
2026-04-24 23:54 38.91366 -97.90206 34882 ft 520 kts 89°
2026-04-24 23:55 38.91754 -97.80914 34879 ft 520 kts 89°
2026-04-24 23:55 38.92131 -97.71690 34868 ft 520 kts 89°
2026-04-24 23:56 38.92510 -97.62420 34872 ft 519 kts 89°
2026-04-24 23:56 38.93301 -97.53184 34870 ft 521 kts 83°
2026-04-24 23:57 38.94681 -97.44048 34872 ft 521 kts 79°
2026-04-24 23:57 38.96192 -97.34943 34871 ft 521 kts 80°
2026-04-24 23:58 38.97496 -97.25850 34869 ft 520 kts 82°
2026-04-24 23:58 38.98705 -97.16679 34878 ft 520 kts 82°
2026-04-24 23:59 38.99909 -97.07517 34879 ft 519 kts 82°
2026-04-24 23:59 39.01124 -96.98358 34885 ft 519 kts 82°
2026-04-25 00:00 39.02331 -96.89214 34882 ft 519 kts 83°
2026-04-25 00:00 39.03528 -96.80064 34880 ft 518 kts 83°
2026-04-25 00:01 39.04716 -96.70920 34879 ft 518 kts 83°
2026-04-25 00:01 39.05898 -96.61771 34885 ft 519 kts 83°
2026-04-25 00:02 39.07067 -96.52665 34888 ft 518 kts 83°
2026-04-25 00:02 39.08242 -96.43456 34891 ft 518 kts 83°
2026-04-25 00:03 39.09388 -96.34385 34881 ft 516 kts 82°
2026-04-25 00:03 39.10533 -96.25297 34879 ft 513 kts 82°
2026-04-25 00:04 39.11667 -96.16235 34890 ft 512 kts 82°
2026-04-25 00:04 39.12792 -96.07191 34890 ft 511 kts 82°
2026-04-25 00:05 39.13718 -95.99688 34889 ft 511 kts 82°
2026-04-25 00:05 39.14830 -95.90638 34903 ft 511 kts 83°
2026-04-25 00:06 39.15936 -95.81582 34899 ft 511 kts 83°
2026-04-25 00:06 39.17028 -95.72568 34898 ft 512 kts 83°
2026-04-25 00:07 39.18119 -95.63496 34900 ft 513 kts 83°
2026-04-25 00:07 39.19207 -95.54396 34898 ft 513 kts 83°
2026-04-25 00:08 39.20285 -95.45314 34897 ft 513 kts 83°
2026-04-25 00:08 39.21357 -95.36216 34898 ft 513 kts 83°
2026-04-25 00:09 39.22418 -95.27166 34899 ft 513 kts 84°
2026-04-25 00:09 39.23474 -95.18084 34894 ft 512 kts 84°
2026-04-25 00:10 39.24526 -95.08985 34909 ft 512 kts 84°
2026-04-25 00:10 39.25567 -94.99895 34905 ft 512 kts 84°
2026-04-25 00:11 39.26603 -94.90805 34905 ft 512 kts 84°
2026-04-25 00:11 39.27624 -94.81765 34905 ft 512 kts 84°
2026-04-25 00:12 39.28646 -94.72683 34908 ft 512 kts 84°
2026-04-25 00:12 39.29798 -94.63593 34910 ft 512 kts 83°
2026-04-25 00:13 39.31026 -94.54525 34903 ft 512 kts 83°
2026-04-25 00:13 39.32233 -94.45462 34912 ft 512 kts 83°
2026-04-25 00:14 39.33410 -94.36399 34918 ft 511 kts 84°
2026-04-25 00:14 39.34567 -94.27397 34914 ft 511 kts 84°
2026-04-25 00:15 39.35722 -94.18333 34918 ft 511 kts 84°
2026-04-25 00:15 39.36872 -94.09255 34916 ft 512 kts 84°
2026-04-25 00:16 39.38018 -94.00180 34928 ft 512 kts 84°
2026-04-25 00:16 39.39158 -93.91102 34920 ft 511 kts 84°
2026-04-25 00:17 39.40291 -93.82011 34929 ft 511 kts 85°
2026-04-25 00:17 39.41412 -93.72930 34927 ft 512 kts 85°
2026-04-25 00:18 39.42530 -93.63833 34927 ft 512 kts 85°
2026-04-25 00:18 39.43629 -93.54797 34926 ft 511 kts 85°
2026-04-25 00:19 39.44735 -93.45699 34922 ft 511 kts 85°
2026-04-25 00:19 39.45833 -93.36593 34927 ft 511 kts 85°
2026-04-25 00:20 39.46920 -93.27510 34921 ft 511 kts 85°
2026-04-25 00:20 39.48000 -93.18411 34930 ft 511 kts 86°
2026-04-25 00:21 39.49066 -93.09367 34928 ft 511 kts 86°
2026-04-25 00:21 39.50131 -93.00266 34924 ft 511 kts 86°
2026-04-25 00:22 39.51188 -92.91172 34929 ft 511 kts 86°
2026-04-25 00:22 39.52239 -92.82058 34923 ft 511 kts 86°
2026-04-25 00:23 39.53285 -92.72943 34925 ft 511 kts 87°
2026-04-25 00:23 39.54323 -92.63819 34928 ft 512 kts 87°
2026-04-25 00:24 39.55356 -92.54676 34933 ft 513 kts 87°
2026-04-25 00:24 39.56383 -92.45518 34928 ft 513 kts 87°
2026-04-25 00:25 39.57403 -92.36348 34919 ft 513 kts 88°
2026-04-25 00:25 39.58408 -92.27247 34927 ft 514 kts 88°
2026-04-25 00:26 39.59415 -92.18073 34927 ft 514 kts 88°
2026-04-25 00:26 39.60417 -92.08897 34926 ft 514 kts 88°
2026-04-25 00:27 39.61412 -91.99688 34929 ft 514 kts 88°
2026-04-25 00:27 39.62397 -91.90493 34925 ft 514 kts 88°
2026-04-25 00:28 39.63375 -91.81310 34928 ft 514 kts 88°
2026-04-25 00:28 39.64343 -91.72137 34926 ft 513 kts 88°
2026-04-25 00:29 39.65306 -91.62955 34923 ft 513 kts 88°
2026-04-25 00:29 39.66258 -91.53807 34927 ft 513 kts 88°
2026-04-25 00:30 39.67199 -91.44693 34927 ft 512 kts 88°
2026-04-25 00:30 39.68135 -91.35520 34926 ft 512 kts 88°
2026-04-25 00:31 39.69044 -91.26518 34923 ft 511 kts 89°
2026-04-25 00:31 39.69962 -91.17356 34917 ft 510 kts 89°
2026-04-25 00:32 39.70872 -91.08221 34908 ft 509 kts 89°
2026-04-25 00:32 39.71773 -90.99109 34911 ft 508 kts 89°
2026-04-25 00:33 39.72671 -90.89989 34921 ft 507 kts 89°
2026-04-25 00:33 39.73551 -90.80965 34917 ft 507 kts 89°
2026-04-25 00:34 39.74429 -90.71883 34911 ft 506 kts 89°
2026-04-25 00:34 39.75299 -90.62812 34918 ft 505 kts 89°
2026-04-25 00:35 39.76160 -90.53751 34910 ft 504 kts 89°
2026-04-25 00:35 39.77013 -90.44700 34907 ft 504 kts 89°
2026-04-25 00:36 39.77859 -90.35649 34901 ft 504 kts 89°
2026-04-25 00:36 39.78699 -90.26603 34895 ft 503 kts 89°
2026-04-25 00:37 39.79522 -90.17628 34895 ft 502 kts 89°
2026-04-25 00:37 39.80341 -90.08634 34900 ft 501 kts 89°
2026-04-25 00:38 39.81157 -89.99601 34899 ft 502 kts 89°
2026-04-25 00:38 39.81965 -89.90567 34897 ft 504 kts 89°
2026-04-25 00:39 39.82767 -89.81507 34890 ft 504 kts 89°
2026-04-25 00:39 39.83569 -89.72427 34874 ft 504 kts 89°
2026-04-25 00:40 39.84202 -89.63422 34874 ft 500 kts 94°
2026-04-25 00:40 39.84234 -89.54387 34884 ft 497 kts 97°
2026-04-25 00:41 39.84143 -89.45391 34878 ft 497 kts 97°
2026-04-25 00:41 39.84127 -89.36384 34879 ft 498 kts 96°
2026-04-25 00:42 39.84162 -89.27377 34881 ft 498 kts 95°
2026-04-25 00:42 39.84199 -89.18375 34881 ft 498 kts 95°
2026-04-25 00:43 39.84220 -89.09420 34884 ft 498 kts 95°
2026-04-25 00:43 39.84231 -89.00414 34871 ft 498 kts 95°
2026-04-25 00:44 39.84235 -88.91406 34871 ft 497 kts 95°
2026-04-25 00:44 39.84235 -88.82406 34870 ft 497 kts 95°
2026-04-25 00:45 39.84227 -88.73391 34868 ft 498 kts 95°
2026-04-25 00:45 39.84211 -88.64388 34872 ft 498 kts 95°
2026-04-25 00:46 39.84190 -88.55426 34875 ft 498 kts 95°
2026-04-25 00:47 39.84138 -88.41889 34872 ft 499 kts 95°
2026-04-25 00:47 39.84094 -88.32857 34870 ft 499 kts 95°
2026-04-25 00:48 39.84044 -88.23816 34873 ft 500 kts 95°
2026-04-25 00:48 39.83987 -88.14762 34867 ft 500 kts 95°
2026-04-25 00:49 39.83924 -88.05705 34871 ft 500 kts 95°
2026-04-25 00:49 39.83855 -87.96707 34874 ft 500 kts 95°
2026-04-25 00:50 39.83781 -87.87656 34884 ft 500 kts 95°
2026-04-25 00:50 39.83710 -87.80064 34879 ft 501 kts 95°
2026-04-25 00:51 39.83621 -87.71009 34879 ft 500 kts 95°
2026-04-25 00:51 39.83508 -87.60500 34879 ft 500 kts 95°
2026-04-25 00:52 39.83422 -87.52925 34880 ft 499 kts 95°
2026-04-25 00:52 39.83313 -87.43965 34882 ft 498 kts 95°
2026-04-25 00:53 39.83194 -87.34962 34880 ft 497 kts 95°
2026-04-25 00:53 39.83071 -87.25974 34890 ft 496 kts 95°
2026-04-25 00:54 39.82942 -87.17000 34886 ft 496 kts 95°
2026-04-25 00:54 39.82806 -87.08030 34897 ft 495 kts 95°
2026-04-25 00:55 39.82662 -86.99088 34896 ft 494 kts 94°
2026-04-25 00:55 39.82512 -86.90132 34897 ft 493 kts 94°
2026-04-25 00:56 39.82357 -86.81274 34898 ft 492 kts 94°
2026-04-25 00:56 39.82193 -86.72370 34899 ft 492 kts 94°
2026-04-25 00:57 39.82022 -86.63482 34887 ft 491 kts 94°
2026-04-25 00:57 39.81849 -86.54721 34886 ft 491 kts 94°
2026-04-25 00:58 39.81668 -86.45872 34890 ft 490 kts 94°
2026-04-25 00:58 39.81483 -86.37000 34886 ft 490 kts 93°
2026-04-25 00:59 39.81713 -86.28115 34881 ft 492 kts 87°
2026-04-25 00:59 39.82363 -86.19258 34880 ft 492 kts 86°
2026-04-25 01:00 39.83010 -86.10439 34881 ft 492 kts 86°
2026-04-25 01:00 39.83564 -86.01550 34882 ft 492 kts 87°
2026-04-25 01:01 39.84066 -85.92682 34882 ft 492 kts 88°
2026-04-25 01:01 39.84557 -85.83798 34877 ft 492 kts 88°
2026-04-25 01:02 39.85047 -85.74916 34881 ft 492 kts 88°
2026-04-25 01:02 39.85533 -85.66042 34883 ft 491 kts 88°
2026-04-25 01:03 39.86013 -85.57166 34890 ft 491 kts 88°
2026-04-25 01:03 39.86483 -85.48343 34886 ft 491 kts 87°
2026-04-25 01:04 39.86949 -85.39469 34880 ft 491 kts 87°
2026-04-25 01:04 39.87406 -85.30610 34882 ft 490 kts 87°
2026-04-25 01:05 39.87857 -85.21747 34879 ft 489 kts 87°
2026-04-25 01:05 39.88301 -85.12910 34880 ft 489 kts 87°
2026-04-25 01:06 39.88737 -85.04058 34881 ft 489 kts 87°
2026-04-25 01:06 39.89164 -84.95292 34876 ft 488 kts 87°
2026-04-25 01:07 39.89584 -84.86483 34877 ft 487 kts 86°
2026-04-25 01:07 39.90000 -84.77666 34884 ft 487 kts 86°
2026-04-25 01:08 39.90410 -84.68869 34873 ft 487 kts 86°
2026-04-25 01:08 39.90812 -84.60076 34868 ft 486 kts 86°
2026-04-25 01:09 39.91204 -84.51278 34871 ft 486 kts 86°
2026-04-25 01:09 39.91589 -84.42507 34869 ft 485 kts 86°
2026-04-25 01:10 39.91970 -84.33723 34873 ft 486 kts 86°
2026-04-25 01:10 39.92344 -84.24928 34873 ft 486 kts 86°
2026-04-25 01:11 39.92708 -84.16181 34869 ft 487 kts 86°
2026-04-25 01:11 39.93070 -84.07364 34867 ft 487 kts 86°
2026-04-25 01:12 39.93424 -83.98552 34860 ft 488 kts 86°
2026-04-25 01:12 39.93772 -83.89713 34863 ft 487 kts 86°
2026-04-25 01:13 39.94113 -83.80891 34864 ft 488 kts 86°
2026-04-25 01:13 39.94446 -83.72117 34870 ft 487 kts 86°
2026-04-25 01:14 39.94775 -83.63289 34862 ft 487 kts 86°
2026-04-25 01:14 39.95094 -83.54474 34862 ft 487 kts 86°
2026-04-25 01:15 39.95408 -83.45664 34860 ft 487 kts 86°
2026-04-25 01:15 39.95717 -83.36839 34863 ft 486 kts 86°
2026-04-25 01:16 39.96019 -83.28039 34851 ft 486 kts 86°
2026-04-25 01:16 39.96280 -83.19228 34840 ft 487 kts 88°
2026-04-25 01:17 39.95759 -83.10423 34833 ft 488 kts 98°
2026-04-25 01:17 39.94293 -83.01781 34836 ft 488 kts 103°
2026-04-25 01:18 39.92693 -82.93185 34809 ft 488 kts 101°
2026-04-25 01:18 39.91289 -82.84525 34832 ft 488 kts 99°
2026-04-25 01:19 39.90000 -82.75842 34830 ft 488 kts 98°
2026-04-25 01:19 39.88735 -82.67199 34829 ft 489 kts 98°
2026-04-25 01:20 39.87455 -82.58582 34832 ft 490 kts 99°
2026-04-25 01:20 39.86142 -82.49868 34815 ft 491 kts 98°
2026-04-25 01:21 39.84819 -82.41144 34821 ft 492 kts 98°
2026-04-25 01:21 39.83488 -82.32416 34829 ft 492 kts 98°
2026-04-25 01:22 39.82152 -82.23695 34830 ft 492 kts 98°
2026-04-25 01:22 39.80814 -82.15007 34829 ft 492 kts 98°
2026-04-25 01:23 39.79464 -82.06285 34838 ft 492 kts 98°
2026-04-25 01:23 39.78105 -81.97551 34834 ft 492 kts 99°
2026-04-25 01:24 39.76750 -81.88883 34835 ft 492 kts 99°
2026-04-25 01:24 39.75379 -81.80169 34834 ft 492 kts 99°
2026-04-25 01:25 39.74004 -81.71461 34841 ft 492 kts 99°
2026-04-25 01:25 39.72622 -81.62752 34848 ft 492 kts 99°
2026-04-25 01:26 39.71232 -81.54051 34841 ft 493 kts 99°
2026-04-25 01:26 39.69857 -81.45491 34844 ft 492 kts 99°
2026-04-25 01:27 39.68452 -81.36783 34842 ft 493 kts 99°
2026-04-25 01:27 39.67042 -81.28077 34850 ft 493 kts 99°
2026-04-25 01:28 39.64924 -81.15076 34851 ft 493 kts 99°
2026-04-25 01:28 39.63496 -81.06373 34853 ft 493 kts 99°
2026-04-25 01:29 39.62059 -80.97659 34852 ft 494 kts 99°
2026-04-25 01:29 39.60616 -80.88951 34854 ft 494 kts 99°
2026-04-25 01:30 39.59165 -80.80234 34850 ft 494 kts 99°
2026-04-25 01:30 39.57708 -80.71527 34851 ft 495 kts 99°
2026-04-25 01:31 39.55789 -80.62932 34856 ft 498 kts 109°
2026-04-25 01:31 39.52969 -80.54714 34867 ft 500 kts 113°
2026-04-25 01:32 39.50070 -80.46566 34870 ft 500 kts 111°
2026-04-25 01:32 39.47342 -80.38277 34873 ft 500 kts 110°
2026-04-25 01:33 39.44694 -80.29933 34868 ft 501 kts 110°
2026-04-25 01:33 39.42040 -80.21602 34871 ft 501 kts 110°
2026-04-25 01:34 39.39378 -80.13324 34871 ft 501 kts 110°
2026-04-25 01:34 39.36683 -80.04986 34374 ft 508 kts 110°
2026-04-25 01:35 39.35320 -80.00774 33639 ft 507 kts 111°
2026-04-25 01:35 39.33960 -79.96581 32918 ft 503 kts 111°
2026-04-25 01:35 39.32617 -79.92442 32320 ft 497 kts 111°
2026-04-25 01:35 39.31732 -79.89719 31903 ft 494 kts 111°
2026-04-25 01:36 39.30408 -79.85649 31307 ft 489 kts 111°
2026-04-25 01:36 39.29178 -79.81586 30746 ft 483 kts 106°
2026-04-25 01:36 39.28473 -79.75970 30231 ft 465 kts 89°
2026-04-25 01:36 39.28421 -79.73226 29966 ft 460 kts 88°
2026-04-25 01:37 39.28383 -79.69117 29560 ft 455 kts 89°
2026-04-25 01:37 39.28156 -79.65022 29169 ft 459 kts 94°
2026-04-25 01:37 39.27753 -79.60925 28776 ft 462 kts 95°
2026-04-25 01:37 39.27346 -79.56815 28373 ft 460 kts 94°
2026-04-25 01:38 39.26986 -79.52736 27963 ft 455 kts 94°
2026-04-25 01:38 39.26659 -79.48698 27567 ft 450 kts 93°
2026-04-25 01:38 39.26345 -79.44695 27181 ft 446 kts 93°
2026-04-25 01:38 39.26033 -79.40729 26787 ft 443 kts 93°
2026-04-25 01:39 39.25720 -79.36829 26412 ft 440 kts 93°
2026-04-25 01:39 39.25400 -79.32909 26029 ft 438 kts 93°
2026-04-25 01:39 39.25079 -79.29015 25645 ft 435 kts 93°
2026-04-25 01:39 39.24757 -79.25143 25264 ft 433 kts 93°
2026-04-25 01:40 39.24434 -79.21280 24882 ft 431 kts 93°
2026-04-25 01:40 39.24110 -79.17448 24508 ft 429 kts 93°
2026-04-25 01:40 39.23784 -79.13628 24134 ft 427 kts 94°
2026-04-25 01:40 39.23458 -79.09822 23758 ft 425 kts 93°
2026-04-25 01:41 39.23134 -79.06039 23388 ft 423 kts 94°
2026-04-25 01:41 39.22812 -79.02283 23015 ft 421 kts 94°
2026-04-25 01:41 39.22489 -78.98538 22654 ft 419 kts 94°
2026-04-25 01:41 39.22163 -78.94800 22281 ft 417 kts 94°
2026-04-25 01:42 39.21814 -78.91099 21921 ft 415 kts 95°
2026-04-25 01:42 39.21458 -78.87473 21567 ft 412 kts 95°
2026-04-25 01:42 39.21096 -78.83816 21207 ft 409 kts 95°
2026-04-25 01:42 39.20740 -78.80189 20858 ft 407 kts 95°
2026-04-25 01:43 39.20389 -78.76581 20494 ft 404 kts 95°
2026-04-25 01:43 39.20039 -78.72997 20145 ft 401 kts 95°
2026-04-25 01:43 39.19691 -78.69442 19792 ft 399 kts 95°
2026-04-25 01:43 39.19343 -78.65897 19444 ft 397 kts 95°
2026-04-25 01:44 39.18995 -78.62379 19094 ft 395 kts 95°
2026-04-25 01:44 39.18649 -78.58884 18845 ft 391 kts 95°
2026-04-25 01:44 39.18304 -78.55407 18508 ft 389 kts 96°
2026-04-25 01:44 39.17961 -78.51960 18181 ft 387 kts 96°
2026-04-25 01:45 39.17620 -78.48524 17854 ft 386 kts 96°
2026-04-25 01:45 39.17277 -78.45096 17522 ft 385 kts 96°
2026-04-25 01:45 39.16939 -78.41719 17191 ft 384 kts 96°
2026-04-25 01:45 39.16596 -78.38311 16850 ft 383 kts 96°
2026-04-25 01:46 39.16174 -78.34936 16520 ft 382 kts 102°
2026-04-25 01:46 39.15438 -78.31653 16196 ft 381 kts 108°
2026-04-25 01:46 39.14560 -78.28436 15862 ft 380 kts 109°
2026-04-25 01:46 39.13662 -78.25239 15528 ft 379 kts 109°
2026-04-25 01:47 39.12805 -78.22048 15206 ft 377 kts 108°
2026-04-25 01:47 39.11995 -78.18841 14869 ft 374 kts 107°
2026-04-25 01:47 39.11204 -78.15655 14543 ft 373 kts 107°
2026-04-25 01:47 39.10422 -78.12471 14221 ft 371 kts 107°
2026-04-25 01:48 39.09632 -78.09310 13900 ft 370 kts 108°
2026-04-25 01:48 39.08827 -78.06160 13581 ft 368 kts 108°
2026-04-25 01:48 39.08025 -78.03033 13259 ft 367 kts 108°
2026-04-25 01:48 39.07222 -77.99908 12934 ft 366 kts 108°
2026-04-25 01:49 39.06427 -77.96803 12623 ft 365 kts 108°
2026-04-25 01:49 39.05632 -77.93699 12299 ft 365 kts 108°
2026-04-25 01:49 39.04839 -77.90604 11979 ft 362 kts 108°
2026-04-25 01:49 39.04070 -77.87607 11664 ft 353 kts 108°
2026-04-25 01:50 39.03307 -77.84644 11352 ft 344 kts 108°
2026-04-25 01:50 39.02563 -77.81754 11060 ft 336 kts 108°
2026-04-25 01:50 39.01836 -77.78937 10766 ft 328 kts 108°
2026-04-25 01:50 39.01126 -77.76186 10489 ft 321 kts 108°
2026-04-25 01:51 39.00428 -77.73488 10219 ft 315 kts 108°
2026-04-25 01:51 38.99744 -77.70834 9945 ft 309 kts 108°
2026-04-25 01:51 38.99074 -77.68239 9683 ft 303 kts 108°
2026-04-25 01:51 38.98416 -77.65704 9408 ft 295 kts 108°
2026-04-25 01:52 38.97729 -77.63230 9167 ft 294 kts 110°
2026-04-25 01:52 38.96996 -77.60772 8921 ft 295 kts 111°
2026-04-25 01:52 38.96254 -77.58307 8667 ft 297 kts 111°
2026-04-25 01:52 38.95514 -77.55827 8414 ft 297 kts 111°
2026-04-25 01:53 38.94805 -77.53375 8150 ft 296 kts 106°
2026-04-25 01:53 38.94659 -77.50773 8013 ft 289 kts 74°
2026-04-25 01:53 38.95314 -77.48358 7991 ft 282 kts 64°
2026-04-25 01:53 38.96089 -77.46115 7966 ft 265 kts 62°
2026-04-25 01:54 38.96772 -77.44034 7970 ft 247 kts 64°
2026-04-25 01:54 38.97392 -77.42063 7962 ft 230 kts 64°
2026-04-25 01:54 38.97976 -77.40199 7977 ft 219 kts 65°
2026-04-25 01:54 38.98402 -77.38332 7987 ft 219 kts 81°
2026-04-25 01:55 38.98489 -77.36365 8006 ft 221 kts 86°
2026-04-25 01:55 38.98531 -77.34364 7868 ft 225 kts 85°
2026-04-25 01:55 38.98611 -77.32351 7640 ft 226 kts 84°
2026-04-25 01:55 38.98699 -77.30354 7368 ft 223 kts 84°
2026-04-25 01:56 38.98787 -77.28374 7062 ft 221 kts 84°
2026-04-25 01:56 38.98873 -77.26418 6759 ft 218 kts 84°
2026-04-25 01:56 38.98957 -77.24489 6465 ft 214 kts 84°
2026-04-25 01:56 38.99037 -77.22594 6180 ft 211 kts 84°
2026-04-25 01:57 38.99195 -77.18863 5387 ft 214 kts 84°
2026-04-25 01:57 38.99286 -77.16938 4929 ft 218 kts 84°
2026-04-25 01:57 38.99388 -77.14980 4464 ft 221 kts 84°
2026-04-25 01:58 38.99505 -77.12995 3990 ft 224 kts 84°
2026-04-25 01:58 38.99635 -77.10991 3533 ft 224 kts 84°
2026-04-25 01:58 38.99776 -77.09021 3108 ft 217 kts 84°
2026-04-25 01:58 38.99917 -77.07171 3006 ft 199 kts 84°
2026-04-25 01:59 39.00056 -77.05480 2971 ft 180 kts 84°
2026-04-25 01:59 39.00190 -77.03900 2988 ft 176 kts 84°
2026-04-25 01:59 39.00323 -77.02340 2994 ft 176 kts 84°
2026-04-25 01:59 39.00457 -77.00752 3012 ft 180 kts 84°
2026-04-25 02:00 39.00566 -76.99166 2981 ft 179 kts 90°
2026-04-25 02:00 39.00521 -76.97572 2927 ft 177 kts 97°
2026-04-25 02:00 39.00358 -76.96001 2867 ft 177 kts 99°
2026-04-25 02:00 39.00179 -76.94430 2765 ft 177 kts 99°
2026-04-25 02:01 38.99970 -76.92867 2635 ft 177 kts 103°
2026-04-25 02:01 38.99640 -76.91359 2516 ft 173 kts 108°
2026-04-25 02:01 38.99209 -76.89925 2469 ft 172 kts 115°
2026-04-25 02:01 38.98640 -76.88561 2456 ft 174 kts 124°
2026-04-25 02:02 38.97850 -76.87447 2573 ft 169 kts 146°
2026-04-25 02:02 38.96743 -76.86945 2686 ft 177 kts 182°
2026-04-25 02:02 38.95480 -76.87007 2702 ft 183 kts 188°
2026-04-25 02:02 38.94199 -76.87162 2522 ft 186 kts 185°
2026-04-25 02:03 38.92907 -76.87162 2363 ft 185 kts 176°
2026-04-25 02:03 38.91641 -76.87082 2207 ft 181 kts 178°
2026-04-25 02:03 38.90388 -76.87054 1837 ft 180 kts 180°
2026-04-25 02:03 38.89152 -76.87062 1573 ft 173 kts 181°
2026-04-25 02:04 38.87988 -76.87054 1409 ft 163 kts 178°
2026-04-25 02:04 38.86874 -76.87007 1213 ft 158 kts 178°
2026-04-25 02:04 38.85784 -76.87027 1008 ft 154 kts 180°
2026-04-25 02:04 38.84734 -76.87054 746 ft 151 kts 176°
2026-04-25 02:05 38.83712 -76.87036 582 ft 144 kts 181°
2026-04-25 02:05 38.82727 -76.87052 394 ft 137 kts 178°
2026-04-25 02:05 38.81768 -76.87057 282 ft 139 kts 181°
2026-04-25 02:05 38.81182 -76.87055 281 ft 34 kts 179°
2026-04-25 02:06 38.80994 -76.87054 282 ft 18 kts 182°
2026-04-25 02:06 38.80944 -76.87132 282 ft 6 kts 265°
2026-04-25 02:06 38.80942 -76.87206 281 ft 14 kts 269°
2026-04-25 02:06 38.80941 -76.87368 279 ft 17 kts 272°
2026-04-25 02:07 38.80877 -76.87443 280 ft 14 kts 181°
2026-04-25 02:07 38.80786 -76.87446 276 ft 13 kts 181°
2026-04-25 02:07 38.80690 -76.87449 275 ft 14 kts 181°
2026-04-25 02:07 38.80616 -76.87496 274 ft 13 kts 255°
2026-04-25 02:08 38.80615 -76.87589 274 ft 10 kts 269°
2026-04-25 02:08 38.80614 -76.87677 275 ft 10 kts 269°
2026-04-25 02:08 38.80629 -76.87723 276 ft 5 kts 338°
2026-04-25 02:08 38.80666 -76.87721 276 ft 0 kts